Skip Page Navigation
NASA JPL Caltech
NASA Logo - Jet Propulsion Laboratory + View the NASA Portal
+ Near-Earth Object (NEO) Program
Search JPL
JPL Home Earth Solar System Stars & Galaxies Technology
JPL Solar System Dynamics
BODIES ORBITS EPHEMERIDES TOOLS PHYSICAL DATA DISCOVERY FAQ SITE MAP
JPL Small-Body Database Browser
Search: [ help ]  
65001 Teodorescu (2002 AF67)
Classification: Main-belt Asteroid          SPK-ID: 2065001
Ephemeris | Orbit Diagram | Orbital Elements | Physical Parameters | Discovery Circumstances | Close-Approach Data ]

[ hide orbit diagram ]
Orbit Diagram
Note: Make sure you have Java enabled on your browser to see the applet. This applet is provided as a 3D orbit visualization tool. The applet was implemented using 2-body methods, and hence should not be used for determining accurate long-term trajectories (over several years or decades) or planetary encounter circumstances. For accurate long-term ephemerides, please instead use our Horizons system.
Orbit Viewer

Additional Notes: the orbits shown in the applet are color coded. The planets are white lines, and the asteroid/comet is a blue line. The bright white line indicates the portion of the orbit that is above the ecliptic plane, and the darker portion is below the ecliptic plane. Likewise for the asteroid/comet orbit, the light blue indicates the portion above the ecliptic plane, and the dark blue the portion below the ecliptic plane.

Orbit Viewer applet originally written and kindly provided by Osamu Ajiki (AstroArts), and further modified by Ron Baalke (JPL).


Orbital Elements at Epoch 2456400.5 (2013-Apr-18.0) TDB
Reference: JPL 1 (heliocentric ecliptic J2000)
 Element Value Uncertainty (1-sigma)   Units 
e .1962174396201718 1.0946e-07  
a 3.123919464402564 8.2245e-08 AU
q 2.510951985517874 3.3147e-07 AU
i 3.461673139384776 1.2719e-05 deg
node 301.7901355730872 0.00019254 deg
peri 273.0453642955069 0.00019584 deg
M 286.8057842133022 4.1654e-05 deg
tp 2456810.536418816344
(2014-Jun-02.03641882)
0.00023856 JED
period 2016.731912314728
5.52
7.9644e-05
2.181e-07
d
yr
n .1785066214313065 7.0495e-09 deg/d
Q 3.736886943287254 9.8383e-08 AU
  Orbit Determination Parameters
   # obs. used (total)      188  
   data-arc span      6741 days (18.46 yr)  
   first obs. used      1994-10-27  
   last obs. used      2013-04-11  
   planetary ephem.      DE405  
   SB-pert. ephem.      SB405-CPV-2  
   condition code      0  
   fit RMS      .52373  
   data source      ORB  
   producer      Otto Matic  
   solution date      2013-Apr-29 16:52:00  

Additional Information
 Earth MOID = 1.50769 AU 
 T_jup = 3.182 
[ show covariance matrix ]

Ephemeris | Orbit Diagram | Orbital Elements | Physical Parameters | Discovery Circumstances | Close-Approach Data ]

Physical Parameter Table
Parameter Symbol Value Units Sigma Reference Notes
absolute magnitude H 15.272 mag .45735 1 autocmod 2.5c

65001 Teodorescu           Discovered 2002 Jan. 9 by F. Bernardi and A. Boattini at Campo Imperatore.
Ana Maria Teodorescu is the wife of Bernardi, one of the discoverers. She is also a young astronomer working on x-ray binaries evolution modeling and planetary nebulae detection in elliptical galaxies.
NOTE: some special characters may not display properly (any characters within {} are an attempt to place the proper accent above a character)
Reference: 20050407/MPCPages.arcLast Updated: 2005-04-15

[ show close-approach data ]
Alternate Designations
 2002 AF67 = 1999 TL312 
Ephemeris | Orbit Diagram | Orbital Elements | Physical Parameters | Discovery Circumstances | Close-Approach Data ]
ABOUT SSD CREDITS/AWARDS PRIVACY/COPYRIGHT GLOSSARY LINKS
FirstGov 2013-May-22 12:36 UT
(server date/time)  
NASA Home Page
Site Manager:   Donald K. Yeomans
Webmaster  Alan B. Chamberlin